This is the latest recevied weather packets stored in our database for station/object K5RWS. If no packets are shown the sender has not sent any weather packets the latest 10 day(s).
| Time | Temp. | Humidity | Pressure | Rain* | Wind** | Luminosity | Snow |
|---|---|---|---|---|---|---|---|
| 1777055356 | 19.44° C | 15% | 1015.4 hPa | 0 mm | - | 757 W/m² | - |
| 1777055055 | 20° C | 15% | 1015.4 hPa | 0 mm | - | 754 W/m² | - |
| 1777054750 | 18.89° C | 16% | 1015.6 hPa | 0 mm | - | 752 W/m² | - |
| 1777054447 | 18.89° C | 15% | 1015.7 hPa | 0 mm | - | 750 W/m² | - |
| 1777054146 | 18.89° C | 15% | 1015.9 hPa | 0 mm | - | 746 W/m² | - |
| 1777053841 | 19.44° C | 15% | 1015.7 hPa | 0 mm | - | 743 W/m² | - |
| 1777053537 | 19.44° C | 14% | 1015.7 hPa | 0 mm | - | 740 W/m² | - |
| 1777053227 | 18.89° C | 14% | 1016 hPa | 0 mm | - | 733 W/m² | - |
| 1777052923 | 18.89° C | 14% | 1016.1 hPa | 0 mm | - | 729 W/m² | - |
| 1777052619 | 18.89° C | 16% | 1016.1 hPa | 0 mm | - | 722 W/m² | - |
| 1777052314 | 18.89° C | 14% | 1016.1 hPa | 0 mm | - | 717 W/m² | - |
| 1777052010 | 18.33° C | 14% | 1016.3 hPa | 0 mm | - | 713 W/m² | - |
| 1777051707 | 18.33° C | 15% | 1016.3 hPa | 0 mm | - | 704 W/m² | - |
| 1777051398 | 18.89° C | 14% | 1016.6 hPa | 0 mm | - | 696 W/m² | - |
| 1777051095 | 18.89° C | 14% | 1016.7 hPa | 0 mm | - | 691 W/m² | - |
| 1777050789 | 18.33° C | 15% | 1016.4 hPa | 0 mm | - | 681 W/m² | - |
| 1777050485 | 17.78° C | 16% | 1016.6 hPa | 0 mm | - | 673 W/m² | - |
| 1777050184 | 18.33° C | 15% | 1016.6 hPa | 0 mm | - | 663 W/m² | - |
| 1777049880 | 17.78° C | 15% | 1016.6 hPa | 0 mm | - | 656 W/m² | - |
| 1777049575 | 17.22° C | 17% | 1016.6 hPa | 0 mm | - | 644 W/m² | - |
| 1777049273 | 17.78° C | 16% | 1016.7 hPa | 0 mm | - | 634 W/m² | - |
| 1777048970 | 17.78° C | 15% | 1016.4 hPa | 0 mm | - | 625 W/m² | - |
| 1777048669 | 17.22° C | 16% | 1016.4 hPa | 0 mm | - | 614 W/m² | - |
| 1777048365 | 17.22° C | 16% | 1016.7 hPa | 0 mm | - | 603 W/m² | - |
| 1777048065 | 17.22° C | 15% | 1016.7 hPa | 0 mm | - | 592 W/m² | - |
* Rain latest hour (hover to see other rain measurements)
** Current wind speed in m/s (hover to see current wind gust speed)